TimeEDT,TemperatureF,Dew PointF,Humidity,Sea Level PressureIn,VisibilityMPH,Wind Direction,Wind SpeedMPH,Gust SpeedMPH,PrecipitationIn,Events,Conditions,WindDirDegrees,DateUTC
12:53 AM,69.1,37.9,32,29.88,10.0,NW,8.1,-,N/A,,Clear,320,2013-05-17 04:53:00
1:53 AM,66.0,36.0,33,29.90,10.0,NNW,8.1,21.9,N/A,,Clear,330,2013-05-17 05:53:00
2:53 AM,63.0,36.0,37,29.93,10.0,NW,9.2,-,N/A,,Clear,320,2013-05-17 06:53:00
3:53 AM,61.0,37.0,41,29.95,10.0,NNW,5.8,-,N/A,,Clear,330,2013-05-17 07:53:00
4:53 AM,59.0,39.0,48,29.97,10.0,NNW,8.1,-,N/A,,Clear,330,2013-05-17 08:53:00
5:53 AM,55.9,39.9,55,30.01,10.0,Calm,Calm,-,N/A,,Clear,0,2013-05-17 09:53:00
6:53 AM,57.0,41.0,55,30.04,10.0,Calm,Calm,-,N/A,,Clear,0,2013-05-17 10:53:00
8:53 AM,60.1,41.0,49,30.09,10.0,Variable,4.6,-,N/A,,Clear,0,2013-05-17 12:53:00
9:53 AM,60.1,37.9,44,30.09,10.0,NW,9.2,-,N/A,,Clear,320,2013-05-17 13:53:00
10:53 AM,62.1,37.9,41,30.11,10.0,WNW,8.1,-,N/A,,Clear,300,2013-05-17 14:53:00
11:53 AM,63.0,39.0,41,30.12,10.0,NW,8.1,-,N/A,,Clear,310,2013-05-17 15:53:00
12:53 PM,64.0,37.9,38,30.12,10.0,NNW,9.2,-,N/A,,Clear,340,2013-05-17 16:53:00
1:53 PM,66.9,39.9,37,30.11,10.0,Variable,3.5,-,N/A,,Clear,0,2013-05-17 17:53:00
3:53 PM,72.0,37.0,28,30.09,10.0,West,9.2,-,N/A,,Clear,280,2013-05-17 19:53:00
4:53 PM,73.0,37.0,27,30.10,10.0,WNW,8.1,-,N/A,,Clear,300,2013-05-17 20:53:00
5:53 PM,73.9,39.0,28,30.10,10.0,NNW,6.9,-,N/A,,Clear,330,2013-05-17 21:53:00
6:53 PM,72.0,37.9,29,30.11,10.0,WNW,8.1,-,N/A,,Clear,300,2013-05-17 22:53:00
7:53 PM,68.0,42.1,39,30.14,10.0,East,4.6,-,N/A,,Clear,80,2013-05-17 23:53:00
8:53 PM,64.9,43.0,45,30.17,10.0,NE,3.5,-,N/A,,Clear,40,2013-05-18 00:53:00
9:53 PM,62.1,43.0,50,30.21,10.0,Calm,Calm,-,N/A,,Clear,0,2013-05-18 01:53:00
10:53 PM,59.0,44.1,58,30.22,10.0,Calm,Calm,-,N/A,,Clear,0,2013-05-18 02:53:00
11:53 PM,55.9,45.0,67,30.23,10.0,Calm,Calm,-,N/A,,Clear,0,2013-05-18 03:53:00